K4MZ Weather Reports


Display with metric or nautical units.
time (UTC)temp
F
wind
direction
speed
MPH
gust
MPH
rain 1hr
in
rain 24hr
in
rain mn
in
humidity
%
barometer
mb
20260506091522 63 96 1.0 3.0 0.00 0.00 0.00 75 1012.2
20260506090522 63 105 2.0 4.0 0.00 0.00 0.00 75 1012.4
20260506085522 63 127 1.0 2.0 0.00 0.00 0.00 75 1012.2
20260506084542 62 125 2.0 3.0 0.00 0.00 0.00 75 1012.3
20260506083558 62 138 2.0 3.0 0.00 0.00 0.00 75 1012.4
20260506082523 63 107 1.0 3.0 0.00 0.00 0.00 75 1012.6
20260506081523 63 95 1.0 3.0 0.00 0.00 0.00 75 1012.8
20260506080603 63 143 2.0 4.0 0.00 0.00 0.00 75 1012.6
20260506073523 63 91 1.0 3.0 0.00 0.00 0.00 74 1012.6
20260506072624 63 125 2.0 3.0 0.00 0.00 0.00 74 1012.6
20260506071544 63 98 2.0 3.0 0.00 0.00 0.00 73 1012.7
20260506070524 64 104 2.0 5.0 0.00 0.00 0.00 73 1012.7
20260506061525 64 131 2.0 3.0 0.00 0.00 0.00 71 1012.8
20260506060525 65 96 2.0 4.0 0.00 0.00 0.00 70 1012.9
20260506050526 65 112 1.0 3.0 0.00 0.00 0.00 66 1013.4
20260506044526 66 124 3.0 5.0 0.00 0.00 0.00 63 1013.5
20260506043526 66 104 2.0 5.0 0.00 0.00 0.00 62 1013.5
20260506042540 66 113 2.0 5.0 0.00 0.00 0.00 60 1013.4
20260506041547 66 108 2.0 3.0 0.00 0.00 0.00 58 1013.3
20260506040527 66 115 2.0 3.0 0.00 0.00 0.00 57 1013.2
20260506035627 66 104 2.0 5.0 0.00 0.00 0.00 56 1013.2
20260506034608 66 89 2.0 3.0 0.00 0.00 0.00 55 1013.1
20260506033527 67 107 1.0 2.0 0.00 0.00 0.00 54 1013.1
20260506032547 67 105 1.0 2.0 0.00 0.00 0.00 53 1013.1
20260506031608 67 94 2.0 4.0 0.00 0.00 0.00 53 1013.1
20260506030528 67 102 2.0 3.0 0.00 0.00 0.00 53 1013.2
20260506025608 67 106 2.0 3.0 0.00 0.00 0.00 53 1013.3
20260506024543 67 115 2.0 4.0 0.00 0.00 0.00 52 1013.3
20260506023528 67 121 1.0 2.0 0.00 0.00 0.00 51 1013.4
20260506022528 68 111 2.0 2.0 0.00 0.00 0.00 51 1013.4
20260506021529 68 108 1.0 4.0 0.00 0.00 0.00 50 1013.3
20260506020549 68 123 1.0 2.0 0.00 0.00 0.00 50 1013.3
20260506015549 68 107 2.0 4.0 0.00 0.00 0.00 49 1013.3
20260506014558 69 109 1.0 3.0 0.00 0.00 0.00 48 1013.2
20260506013541 70 111 0.0 2.0 0.00 0.00 0.00 47 1013.1
20260506012521 70 70 1.0 3.0 0.00 0.00 0.00 47 1013.1
20260506011639 70 105 1.0 4.0 0.00 0.00 0.00 47 1013.0
20260506004619 71 101 2.0 4.0 0.00 0.00 0.00 44 1012.6
20260506003519 72 114 1.0 4.0 0.00 0.00 0.00 43 1012.6
20260506002519 72 112 1.0 3.0 0.00 0.00 0.00 43 1012.6
20260506001700 73 119 2.0 4.0 0.00 0.00 0.00 42 1012.4
20260506000600 73 99 1.0 4.0 0.00 0.00 0.00 41 1012.3
20260505235519 74 112 2.0 4.0 0.00 0.00 0.00 41 1012.3
20260505234520 74 110 1.0 3.0 0.00 0.00 0.00 40 1012.3
20260505233520 75 117 2.0 4.0 0.00 0.00 0.00 40 1012.2
20260505232520 76 115 1.0 3.0 0.00 0.00 0.00 39 1012.1
20260505231520 78 100 2.0 5.0 0.00 0.00 0.00 37 1012.1
20260505230538 79 121 2.0 5.0 0.00 0.00 0.00 35 1012.1
20260505225558 79 132 2.0 6.0 0.00 0.00 0.00 35 1012.2
20260505224518 78 133 2.0 4.0 0.00 0.00 0.00 36 1012.3
20260505223518 78 131 1.0 5.0 0.00 0.00 0.00 36 1012.4
20260505222518 79 114 2.0 6.0 0.00 0.00 0.00 35 1012.4
20260505221538 79 96 3.0 8.0 0.00 0.00 0.00 34 1012.4
20260505220518 79 134 2.0 6.0 0.00 0.00 0.00 35 1012.4
20260505215539 79 114 3.0 9.0 0.00 0.00 0.00 35 1012.4
20260505214539 79 119 2.0 5.0 0.00 0.00 0.00 36 1012.5
20260505213539 80 143 2.0 7.0 0.00 0.00 0.00 34 1012.4
20260505212519 80 116 2.0 7.0 0.00 0.00 0.00 34 1012.5
20260505211519 79 84 1.0 6.0 0.00 0.00 0.00 36 1012.6
20260505210537 79 112 3.0 8.0 0.00 0.00 0.00 36 1012.5
20260505204559 78 116 2.0 8.0 0.00 0.00 0.00 36 1012.8
20260505203520 80 167 2.0 9.0 0.00 0.00 0.00 35 1012.6
20260505202517 80 129 3.0 11.0 0.00 0.00 0.00 33 1012.8
20260505201557 81 107 3.0 8.0 0.00 0.00 0.00 33 1012.8
20260505200701 81 114 2.0 7.0 0.00 0.00 0.00 33 1012.9
20260505195517 82 76 2.0 6.0 0.00 0.00 0.00 33 1013.0
20260505194518 81 275 2.0 6.0 0.00 0.00 0.00 34 1013.1
20260505193541 81 107 3.0 6.0 0.00 0.00 0.00 33 1013.2
20260505192521 82 140 3.0 9.0 0.00 0.00 0.00 34 1013.3
20260505191538 81 126 2.0 5.0 0.00 0.00 0.00 33 1013.4
20260505190542 82 98 3.0 8.0 0.00 0.00 0.00 33 1013.6
20260505185539 80 305 2.0 6.0 0.00 0.00 0.00 36 1013.8
20260505184559 79 143 3.0 6.0 0.00 0.00 0.00 35 1013.8
20260505183536 80 131 3.0 7.0 0.00 0.00 0.00 35 1013.9
20260505182539 80 133 2.0 7.0 0.00 0.00 0.00 35 1014.0
20260505181519 80 83 2.0 5.0 0.00 0.00 0.00 36 1014.1
20260505180519 80 121 3.0 9.0 0.00 0.00 0.00 35 1014.3
20260505175537 80 131 2.0 6.0 0.00 0.00 0.00 36 1014.5
20260505174600 80 97 2.0 9.0 0.00 0.00 0.00 36 1014.5
20260505173606 79 133 3.0 7.0 0.00 0.00 0.00 37 1014.5
20260505172520 79 141 2.0 7.0 0.00 0.00 0.00 37 1014.8
20260505171517 79 311 2.0 8.0 0.00 0.00 0.00 38 1014.9
20260505170558 78 140 2.0 7.0 0.00 0.00 0.00 37 1015.0
20260505165521 78 113 3.0 8.0 0.00 0.00 0.00 37 1015.1
20260505164538 78 283 3.0 7.0 0.00 0.00 0.00 39 1015.2
20260505163518 77 314 3.0 8.0 0.00 0.00 0.00 40 1015.3
20260505162618 77 113 2.0 6.0 0.00 0.00 0.00 42 1015.4
20260505161538 76 134 2.0 4.0 0.00 0.00 0.00 44 1015.5
20260505160539 76 309 3.0 8.0 0.00 0.00 0.00 45 1015.6
20260505152639 74 132 1.0 4.0 0.00 0.00 0.00 47 1015.9
20260505151559 74 101 2.0 8.0 0.00 0.00 0.00 48 1015.9
20260505150520 72 166 2.0 5.0 0.00 0.00 0.00 49 1016.0
20260505140538 68 87 1.0 4.0 0.00 0.00 0.00 55 1015.8
20260505124519 61 101 2.0 6.0 0.00 0.00 0.00 71 1015.8
20260505123539 60 114 2.0 4.0 0.00 0.00 0.00 73 1015.8
20260505122700 59 111 2.0 4.0 0.00 0.00 0.00 76 1015.9
20260505121539 57 117 1.0 3.0 0.00 0.00 0.00 79 1015.9
20260505120519 55 116 1.0 3.0 0.00 0.00 0.00 82 1015.9
20260505115539 53 92 0.0 2.0 0.00 0.00 0.00 83 1015.7
20260505114529 51 101 1.0 1.0 0.00 0.00 0.00 83 1015.6
20260505113549 50 98 0.0 1.0 0.00 0.00 0.00 84 1015.5
20260505112609 49 91 0.0 0.0 0.00 0.00 0.00 83 1015.4
20260505111630 48 33 0.0 1.0 0.00 0.00 0.00 82 1015.3
20260505110630 48 82 0.0 0.0 0.00 0.00 0.00 82 1015.3
20260505101530 48 90 0.0 1.0 0.00 0.00 0.00 79 1014.9
20260505100530 48 0.0 0.0 0.00 0.00 0.00 79 1015.0
20260505095530 49 48 0.0 1.0 0.00 0.00 0.00 79 1014.9
20260505094551 49 0.0 0.0 0.00 0.00 0.00 78 1015.0
20260505093530 49 106 0.0 1.0 0.00 0.00 0.00 78 1014.9
20260505092611 50 0.0 0.0 0.00 0.00 0.00 77 1014.9
20260505091612 50 102 0.0 1.0 0.00 0.00 0.00 77 1014.7